TimeEDT,TemperatureF,Dew PointF,Humidity,Sea Level PressureIn,VisibilityMPH,Wind Direction,Wind SpeedMPH,Gust SpeedMPH,PrecipitationIn,Events,Conditions,WindDirDegrees,DateUTC
12:58 AM,76.8,63.5,63,30.03,10.0,SSE,2.3,-,N/A,,Scattered Clouds,150,2013-07-10 04:58:00
1:53 AM,78.8,64.4,61,30.00,9.0,Variable,4.6,-,N/A,,Clear,0,2013-07-10 05:53:00
1:58 AM,79.5,64.2,59,30.01,8.0,SSW,5.8,-,N/A,,Clear,200,2013-07-10 05:58:00
2:08 AM,78.8,64.4,61,30.00,10.0,Variable,3.5,-,N/A,,Clear,0,2013-07-10 06:08:00
2:58 AM,78.6,64.6,62,30.00,10.0,SW,2.3,-,N/A,,Clear,220,2013-07-10 06:58:00
3:58 AM,77.4,63.3,62,30.00,10.0,South,3.5,-,N/A,,Clear,190,2013-07-10 07:58:00
4:18 AM,77.0,62.6,61,29.99,9.0,Variable,2.3,-,N/A,,Scattered Clouds,0,2013-07-10 08:18:00
4:28 AM,77.0,62.6,61,29.99,10.0,Variable,1.2,-,N/A,,Partly Cloudy,0,2013-07-10 08:28:00
4:38 AM,75.2,60.8,61,30.00,9.0,Calm,Calm,-,N/A,,Partly Cloudy,0,2013-07-10 08:38:00
4:58 AM,75.0,60.3,60,30.01,9.0,Variable,2.3,-,N/A,,Partly Cloudy,0,2013-07-10 08:58:00
5:03 AM,75.2,59.0,57,29.99,10.0,SE,2.3,-,N/A,,Scattered Clouds,130,2013-07-10 09:03:00
5:18 AM,75.2,59.0,57,30.00,8.0,Calm,Calm,-,N/A,,Mostly Cloudy,0,2013-07-10 09:18:00
5:43 AM,77.0,59.0,54,29.99,6.0,Variable,1.2,-,N/A,,Haze,0,2013-07-10 09:43:00
5:58 AM,76.5,59.5,56,30.00,6.0,Variable,1.2,-,N/A,,Haze,0,2013-07-10 09:58:00
6:58 AM,77.0,58.6,53,30.00,7.0,Variable,4.6,-,N/A,,Mostly Cloudy,0,2013-07-10 10:58:00
7:43 AM,78.8,60.8,54,30.00,10.0,SW,4.6,-,N/A,,Partly Cloudy,220,2013-07-10 11:43:00
7:58 AM,78.6,61.0,55,30.01,10.0,Variable,5.8,-,N/A,,Scattered Clouds,0,2013-07-10 11:58:00
8:03 AM,78.8,60.8,54,30.00,10.0,SSW,4.6,-,N/A,,Mostly Cloudy,200,2013-07-10 12:03:00
8:49 AM,78.8,62.6,57,30.01,10.0,West,4.6,-,N/A,Rain,Light Rain,280,2013-07-10 12:49:00
8:58 AM,79.3,62.8,57,30.02,10.0,West,5.8,-,0.00,Rain,Light Rain,280,2013-07-10 12:58:00
9:18 AM,78.8,62.6,57,30.01,6.0,West,1.2,-,N/A,Rain,Light Rain,260,2013-07-10 13:18:00
9:38 AM,78.8,60.8,54,30.01,2.5,South,2.3,-,N/A,Rain,Rain,180,2013-07-10 13:38:00
9:43 AM,77.0,60.8,57,30.01,3.0,Calm,Calm,-,N/A,Rain,Light Rain,0,2013-07-10 13:43:00
9:58 AM,77.4,60.3,55,30.02,7.0,ESE,1.2,-,0.06,Rain,Light Rain,110,2013-07-10 13:58:00
10:44 AM,77.0,59.0,54,30.01,10.0,SSE,5.8,-,N/A,,Partly Cloudy,160,2013-07-10 14:44:00
10:52 AM,78.8,59.0,51,30.01,10.0,Variable,4.6,-,N/A,,Scattered Clouds,0,2013-07-10 14:52:00
11:17 AM,77.0,59.0,54,30.01,10.0,Variable,3.5,-,N/A,Rain,Light Rain,0,2013-07-10 15:17:00
11:34 AM,77.0,57.2,50,30.01,10.0,Calm,Calm,-,N/A,,Partly Cloudy,0,2013-07-10 15:34:00
11:52 AM,78.8,59.0,51,30.01,10.0,SSW,4.6,-,N/A,,Clear,200,2013-07-10 15:52:00
12:52 PM,82.4,64.4,54,29.99,10.0,SSW,5.8,-,N/A,,Mostly Cloudy,210,2013-07-10 16:52:00
1:52 PM,84.2,66.2,55,29.97,10.0,Variable,5.8,-,N/A,,Partly Cloudy,0,2013-07-10 17:52:00
2:52 PM,86.0,69.8,58,29.94,10.0,SSE,5.8,-,N/A,,Clear,160,2013-07-10 18:52:00
3:58 PM,86.0,71.4,62,29.90,10.0,Variable,6.9,-,N/A,,Partly Cloudy,0,2013-07-10 19:58:00
4:58 PM,87.4,72.1,60,29.89,10.0,SSW,9.2,-,N/A,,Clear,200,2013-07-10 20:58:00
5:58 PM,86.2,72.7,64,29.89,10.0,SSE,4.6,-,N/A,,Partly Cloudy,160,2013-07-10 21:58:00
6:58 PM,84.7,71.1,63,29.91,10.0,SE,2.3,-,N/A,,Scattered Clouds,140,2013-07-10 22:58:00
7:26 PM,82.4,68.0,62,29.92,9.0,SSW,13.8,20.7,N/A,Rain,Rain,200,2013-07-10 23:26:00
7:50 PM,77.0,64.4,65,29.93,10.0,SSW,6.9,-,N/A,Thunderstorm,Scattered Clouds,200,2013-07-10 23:50:00
7:58 PM,76.8,63.3,63,29.95,10.0,SSW,5.8,-,0.01,Thunderstorm,Partly Cloudy,200,2013-07-10 23:58:00
8:58 PM,75.7,59.7,57,29.94,10.0,Variable,3.5,-,N/A,,Overcast,0,2013-07-11 00:58:00
9:58 PM,75.2,59.2,57,29.92,9.0,Variable,2.3,-,N/A,,Scattered Clouds,0,2013-07-11 01:58:00
10:03 PM,75.2,59.0,57,29.91,10.0,Variable,1.2,-,N/A,,Scattered Clouds,0,2013-07-11 02:03:00
10:58 PM,75.4,57.7,54,29.91,10.0,Variable,3.5,-,N/A,,Scattered Clouds,0,2013-07-11 02:58:00
11:58 PM,75.0,57.6,54,29.90,10.0,SE,5.8,-,N/A,,Mostly Cloudy,140,2013-07-11 03:58:00